Total_Precipitation_Accumulation
0.00 0.01 0.05 0.12 0.26 0.53 0.74 0.52 0.38 0.25 0.26 0.19 0.13 0.10 0.13 0.13 0.16 0.20 0.05 0.01 0.00 0.00 0.00 0.01 0.02 0.02 0.02 0.02 0.03 0.04 0.05 0.06 0.06 0.06 0.04 0.03 0.03 0.02 0.02 0.01 0.01 0.01 0.02 0.02 0.02 0.02 0.02 0.02 0.01
0.00 0.01 0.05 0.12 0.32 0.73 0.88 0.50 0.24 0.24 0.29 0.32 0.19 0.09 0.06 0.03 0.02 0.01 0.01 0.01 0.00 0.00 0.00 0.00 0.01 0.02 0.01 0.02 0.03 0.04 0.05 0.05 0.05 0.04 0.03 0.03 0.02 0.02 0.02 0.02 0.01 0.02 0.03 0.03 0.02 0.02 0.02 0.01 0.01
0.00 0.01 0.05 0.08 0.24 0.52 0.69 0.42 0.29 0.21 0.27 0.40 0.30 0.09 0.04 0.02 0.01 0.01 0.00 0.00 0.00 0.00 0.00 0.01 0.01 0.01 0.01 0.02 0.03 0.03 0.04 0.04 0.04 0.03 0.03 0.03 0.03 0.03 0.03 0.03 0.03 0.03 0.04 0.04 0.04 0.03 0.03 0.02 0.01
0.00 0.03 0.05 0.06 0.10 0.17 0.31 0.37 0.39 0.35 0.42 0.42 0.27 0.12 0.07 0.03 0.02 0.01 0.01 0.01 0.00 0.00 0.00 0.01 0.02 0.02 0.02 0.02 0.03 0.04 0.05 0.05 0.05 0.04 0.03 0.03 0.03 0.03 0.03 0.03 0.04 0.05 0.06 0.06 0.06 0.05 0.05 0.04 0.02
0.00 0.02 0.04 0.06 0.10 0.10 0.16 0.23 0.31 0.44 0.54 0.54 0.35 0.16 0.08 0.04 0.03 0.03 0.02 0.01 0.01 0.00 0.01 0.01 0.02 0.03 0.03 0.03 0.04 0.05 0.05 0.06 0.05 0.05 0.04 0.03 0.03 0.03 0.04 0.04 0.04 0.06 0.08 0.09 0.10 0.09 0.09 0.07 0.04
0.00 0.02 0.02 0.03 0.04 0.07 0.12 0.19 0.33 0.50 0.51 0.55 0.53 0.37 0.18 0.09 0.07 0.06 0.06 0.03 0.01 0.01 0.01 0.02 0.03 0.03 0.03 0.04 0.05 0.06 0.06 0.07 0.07 0.06 0.07 0.06 0.06 0.06 0.06 0.06 0.06 0.07 0.08 0.10 0.13 0.14 0.13 0.10 0.09
0.00 0.01 0.01 0.01 0.01 0.04 0.13 0.25 0.30 0.42 0.47 0.65 0.64 0.46 0.22 0.17 0.10 0.10 0.12 0.10 0.04 0.02 0.02 0.03 0.03 0.04 0.05 0.07 0.09 0.10 0.11 0.11 0.10 0.09 0.08 0.08 0.08 0.08 0.10 0.11 0.10 0.10 0.11 0.12 0.14 0.16 0.18 0.16 0.13
0.00 0.00 0.00 0.00 0.01 0.05 0.12 0.20 0.29 0.42 0.52 0.55 0.60 0.53 0.30 0.25 0.19 0.21 0.15 0.12 0.10 0.06 0.05 0.05 0.06 0.10 0.13 0.12 0.10 0.12 0.13 0.13 0.12 0.11 0.10 0.10 0.11 0.14 0.18 0.18 0.17 0.19 0.22 0.21 0.19 0.19 0.23 0.27 0.25
0.00 0.00 0.00 0.00 0.01 0.08 0.16 0.21 0.26 0.29 0.34 0.48 0.64 0.68 0.47 0.30 0.29 0.33 0.20 0.18 0.16 0.15 0.17 0.20 0.19 0.16 0.18 0.20 0.16 0.17 0.18 0.19 0.19 0.24 0.22 0.20 0.21 0.26 0.36 0.37 0.40 0.39 0.42 0.47 0.46 0.44 0.48 0.52 0.45
0.00 0.00 0.00 0.00 0.00 0.03 0.10 0.19 0.24 0.33 0.48 0.87 1.06 0.85 0.56 0.39 0.33 0.35 0.29 0.25 0.26 0.28 0.30 0.32 0.30 0.29 0.33 0.37 0.35 0.38 0.39 0.46 0.44 0.52 0.58 0.57 0.58 0.44 0.36 0.58 0.73 0.73 0.85 0.92 0.97 1.13 1.08 0.93 0.71
0.00 0.00 0.00 0.00 0.00 0.01 0.04 0.11 0.22 0.39 0.72 1.19 1.26 0.88 0.66 0.48 0.46 0.41 0.41 0.37 0.44 0.42 0.39 0.38 0.36 0.39 0.46 0.47 0.49 0.59 0.69 0.80 0.80 0.85 0.95 1.08 1.09 0.89 0.73 0.95 1.18 1.18 1.26 1.29 1.53 1.76 1.38 1.24 1.16
0.00 0.00 0.00 0.00 0.00 0.01 0.03 0.10 0.27 0.52 0.89 1.15 0.98 0.71 0.67 0.70 0.62 0.59 0.57 0.67 0.68 0.64 0.62 0.58 0.58 0.63 0.64 0.68 0.68 0.65 0.66 0.71 0.78 0.92 1.04 1.39 1.46 1.41 1.35 1.39 1.32 1.47 1.56 1.80 1.87 1.84 1.65 1.60 1.49
0.00 0.00 0.00 0.00 0.00 0.02 0.05 0.12 0.30 0.59 0.78 0.81 0.60 0.46 0.59 0.73 0.71 0.71 0.72 0.71 0.76 0.94 1.06 1.05 1.03 0.94 0.89 0.83 0.73 0.67 0.66 0.66 0.68 0.89 1.06 1.41 1.61 1.64 1.74 1.46 1.36 1.33 1.54 1.81 1.77 1.62 1.66 1.74 1.77
0.00 0.00 0.01 0.01 0.01 0.03 0.07 0.13 0.29 0.45 0.55 0.54 0.46 0.43 0.46 0.58 0.61 0.66 0.80 0.92 1.08 1.29 1.44 1.48 1.46 1.32 1.19 1.05 0.94 0.93 0.88 0.78 0.68 0.85 0.94 1.34 1.64 1.60 1.48 1.45 1.44 1.37 1.54 1.59 1.67 1.71 1.84 1.87 1.95
0.00 0.01 0.05 0.05 0.04 0.05 0.06 0.17 0.35 0.53 0.61 0.50 0.53 0.50 0.52 0.61 0.68 0.81 0.94 1.22 1.49 1.68 1.81 1.91 1.98 1.77 1.58 1.44 1.29 1.16 1.07 0.97 0.89 0.88 0.88 1.19 1.46 1.53 1.54 1.45 1.34 1.38 1.48 1.55 1.62 1.66 1.74 1.64 1.69
0.02 0.05 0.14 0.14 0.08 0.08 0.09 0.35 0.65 0.64 0.60 0.56 0.56 0.66 0.72 0.81 0.93 0.94 1.04 1.28 1.64 1.95 2.33 2.43 2.26 2.04 1.85 1.65 1.46 1.38 1.37 1.31 1.15 0.94 0.86 0.94 1.13 1.28 1.33 1.22 1.21 1.31 1.23 1.21 1.25 1.24 1.29 1.32 1.44
0.05 0.08 0.14 0.23 0.14 0.10 0.19 0.66 0.96 0.71 0.52 0.56 0.66 0.71 0.88 0.97 1.17 1.15 1.10 1.28 1.63 2.16 2.83 2.84 2.40 2.09 1.88 1.73 1.63 1.57 1.53 1.31 1.17 1.02 0.93 0.85 0.81 0.78 0.82 0.80 0.83 0.90 0.91 0.91 0.88 1.02 1.09 1.14 1.25
0.04 0.09 0.21 0.33 0.20 0.18 0.27 0.63 0.66 0.56 0.65 0.60 0.59 0.64 0.76 0.78 0.95 1.02 1.11 1.35 1.91 2.66 3.24 3.17 2.64 2.22 1.98 1.81 1.63 1.43 1.33 1.19 1.06 0.97 0.87 0.71 0.66 0.61 0.58 0.56 0.58 0.57 0.60 0.66 0.69 0.73 0.83 0.85 0.90
0.04 0.08 0.21 0.25 0.18 0.26 0.33 0.52 0.60 0.67 0.78 0.76 0.60 0.54 0.62 0.68 0.78 0.97 1.40 2.02 2.69 3.31 3.43 2.99 2.53 2.24 1.97 1.66 1.17 0.85 0.74 0.72 0.67 0.57 0.51 0.46 0.42 0.43 0.45 0.41 0.40 0.40 0.39 0.40 0.44 0.51 0.57 0.59 0.68
0.05 0.07 0.19 0.25 0.17 0.20 0.32 0.60 0.84 0.78 0.71 0.66 0.66 0.54 0.60 0.81 1.03 1.48 2.25 2.73 2.71 2.55 2.12 1.71 1.51 1.38 1.10 0.83 0.58 0.46 0.41 0.38 0.36 0.34 0.36 0.34 0.29 0.30 0.30 0.30 0.31 0.31 0.29 0.30 0.33 0.36 0.37 0.40 0.51
0.10 0.10 0.18 0.24 0.15 0.15 0.33 0.74 0.94 0.88 0.70 0.57 0.54 0.46 0.64 0.96 1.39 1.98 2.36 2.23 1.68 1.15 0.93 0.83 0.77 0.56 0.42 0.37 0.33 0.28 0.25 0.25 0.23 0.22 0.24 0.24 0.21 0.22 0.23 0.23 0.24 0.27 0.28 0.29 0.32 0.32 0.33 0.32 0.34
0.09 0.06 0.06 0.09 0.15 0.31 0.48 0.93 1.02 0.81 0.75 0.59 0.53 0.49 0.58 0.79 0.99 1.26 1.36 1.07 0.87 0.74 0.65 0.67 0.60 0.38 0.30 0.25 0.21 0.19 0.18 0.20 0.20 0.19 0.19 0.19 0.17 0.18 0.17 0.17 0.16 0.18 0.23 0.29 0.29 0.34 0.34 0.32 0.26
0.04 0.03 0.04 0.10 0.21 0.36 0.51 0.74 0.83 0.63 0.74 0.55 0.41 0.38 0.39 0.53 0.57 0.54 0.51 0.44 0.41 0.41 0.44 0.52 0.52 0.47 0.37 0.30 0.24 0.21 0.19 0.18 0.19 0.19 0.19 0.20 0.20 0.18 0.18 0.18 0.17 0.15 0.15 0.20 0.23 0.31 0.35 0.36 0.31
0.03 0.05 0.12 0.21 0.30 0.63 0.64 0.70 0.84 0.74 0.78 0.58 0.38 0.30 0.33 0.44 0.46 0.39 0.30 0.24 0.25 0.26 0.27 0.34 0.45 0.56 0.52 0.45 0.36 0.30 0.24 0.21 0.20 0.19 0.19 0.19 0.18 0.18 0.17 0.18 0.19 0.19 0.17 0.15 0.15 0.20 0.27 0.34 0.36
0.05 0.07 0.23 0.53 0.80 0.87 0.53 0.59 0.81 0.63 0.57 0.41 0.22 0.15 0.23 0.38 0.47 0.43 0.32 0.23 0.19 0.17 0.15 0.13 0.16 0.27 0.31 0.30 0.31 0.31 0.30 0.26 0.21 0.18 0.15 0.17 0.16 0.16 0.16 0.16 0.18 0.19 0.20 0.19 0.17 0.16 0.19 0.26 0.32
0.04 0.03 0.09 0.17 0.24 0.37 0.45 0.69 0.80 0.61 0.39 0.17 0.07 0.06 0.15 0.23 0.25 0.25 0.19 0.13 0.09 0.06 0.06 0.04 0.04 0.07 0.08 0.10 0.13 0.18 0.21 0.17 0.15 0.21 0.17 0.17 0.21 0.22 0.21 0.16 0.15 0.17 0.18 0.18 0.18 0.17 0.17 0.21 0.26
0.03 0.02 0.03 0.05 0.08 0.23 0.48 0.69 0.58 0.47 0.32 0.14 0.07 0.05 0.06 0.08 0.09 0.10 0.10 0.08 0.06 0.04 0.03 0.03 0.02 0.02 0.02 0.03 0.06 0.09 0.15 0.15 0.14 0.16 0.17 0.16 0.22 0.23 0.21 0.18 0.15 0.15 0.16 0.17 0.18 0.18 0.20 0.23 0.26
0.03 0.02 0.02 0.03 0.08 0.15 0.30 0.58 0.65 0.48 0.33 0.14 0.08 0.07 0.06 0.08 0.07 0.07 0.06 0.06 0.05 0.04 0.04 0.04 0.03 0.03 0.02 0.02 0.03 0.05 0.12 0.15 0.16 0.15 0.17 0.19 0.19 0.19 0.17 0.16 0.14 0.12 0.13 0.16 0.17 0.18 0.23 0.26 0.32
0.04 0.03 0.03 0.03 0.05 0.08 0.17 0.30 0.26 0.21 0.13 0.09 0.05 0.03 0.04 0.04 0.05 0.04 0.04 0.04 0.04 0.03 0.03 0.03 0.03 0.03 0.03 0.02 0.02 0.02 0.06 0.10 0.14 0.18 0.19 0.20 0.19 0.18 0.16 0.15 0.14 0.13 0.13 0.15 0.18 0.20 0.22 0.25 0.31
0.05 0.06 0.05 0.05 0.05 0.05 0.08 0.17 0.11 0.11 0.10 0.06 0.02 0.01 0.01 0.01 0.01 0.01 0.02 0.02 0.02 0.03 0.03 0.04 0.04 0.04 0.03 0.02 0.02 0.01 0.01 0.03 0.06 0.11 0.14 0.17 0.17 0.15 0.15 0.15 0.13 0.11 0.11 0.14 0.19 0.22 0.22 0.25 0.29